Weather History for Ravenna, OH

Change the Weather History Date:

Saturday, March 16, 2013

  Actual Average (KCAK) Record (KCAK)
Temperature  
Mean Temperature 31 °F 37 °F  
Max Temperature 34 °F 46 °F 77 °F (1945)
Min Temperature 28 °F 28 °F 5 °F (1911)
Degree Days  
Heating Degree Days 34 28  
Month to date heating degree days 483  
Since 1 July heating degree days 5027  
Cooling Degree Days 0 0  
Month to date cooling degree days 0  
Year to date cooling degree days 0  
Moisture  
Dew Point 31 °F    
Average Humidity 98    
Maximum Humidity 100    
Minimum Humidity 86    
Precipitation  
Precipitation 0.19 in 0.09 in 0.93 in (1982)
Month to date precipitation 1.42  
Year to date precipitation 6.34  
Snow  
Snow 0.00 in 0.20 in - ()
Month to date snowfall 5.0  
Since 1 July snowfall 41.5  
Snow Depth -    
Sea Level Pressure  
Sea Level Pressure 29.78 in    
Wind  
Wind Speed 6 mph (NE)    
Max Wind Speed 12 mph    
Max Gust Speed -    
Visibility 5 miles    
Events Rain , Snow    
T = Trace of Precipitation, MM = Missing Value Source: NWS Daily Summary

Daily Weather History Graph

Daily Weather History Graph

Search for Another Location

Airport:

Trip Planner

Search our weather history database for the weather conditions in past years. The results will help you decide how hot, cold, wet, or windy it might be!

Date:

Astronomy

Mar. 16, 2013 Rise Set
Actual Time 7:34 AM EDT 7:33 PM EDT
Civil Twilight 7:07 AM EDT 8:00 PM EDT
Nautical Twilight 6:35 AM EDT 8:32 PM EDT
Astronomical Twilight 6:02 AM EDT 9:05 PM EDT
Moon 10:00 AM EDT (3/16) No Moon Set
Length of Visible Light 12h 53m
Length of Day
11h 58m
Waxing Crescent, 23% of the Moon is Illuminated
Mar 16
Waxing Crescent
Mar 19
First Quarter
Mar 27
Full
Apr 3
Last Quarter
Apr 10
New

Hourly Weather History & Observations

Time (EDT) Temp. Windchill Dew Point Humidity Pressure Visibility Wind Dir Wind Speed Gust Speed Precip Events Conditions
12:16 AM 32.4 °F - 32.5 °F 100% 29.84 in 1.0 mi Calm Calm - N/A Rain Light Rain
12:36 AM 32.4 °F 27.9 °F 32.5 °F 100% 29.83 in 1.2 mi East 4.6 mph - N/A Snow Light Snow
12:56 AM 32.4 °F 29.1 °F 32.5 °F 100% 29.83 in 1.8 mi ESE 3.5 mph - N/A Rain Light Rain
1:16 AM 32.4 °F 29.1 °F 32.5 °F 100% 29.82 in 1.8 mi ESE 3.5 mph - N/A Snow Light Snow
1:36 AM 32.4 °F 29.1 °F 32.5 °F 100% 29.81 in 2.0 mi East 3.5 mph - N/A Snow Light Snow
1:56 AM 32.4 °F 27.9 °F 32.5 °F 100% 29.80 in 2.5 mi East 4.6 mph - N/A Snow Light Snow
2:16 AM 32.4 °F 27.9 °F 32.5 °F 100% 29.80 in 3.0 mi ESE 4.6 mph - N/A Rain Light Rain
2:36 AM 32.4 °F 26.9 °F 32.5 °F 100% 29.79 in 3.0 mi ESE 5.8 mph - N/A Snow Light Snow
2:57 AM 32.4 °F 26.9 °F 32.5 °F 100% 29.79 in 3.0 mi ESE 5.8 mph - N/A   Overcast
3:16 AM 32.4 °F 26.9 °F 32.5 °F 100% 29.78 in 3.0 mi ESE 5.8 mph - N/A Snow Light Snow
3:36 AM 32.4 °F 26.9 °F 32.5 °F 100% 29.76 in 1.8 mi ESE 5.8 mph - N/A Rain Light Rain
3:56 AM 32.4 °F 26.0 °F 32.5 °F 100% 29.76 in 2.5 mi East 6.9 mph - N/A Rain Light Rain
4:16 AM 32.4 °F 24.6 °F 32.5 °F 100% 29.74 in 2.5 mi East 9.2 mph - N/A Rain Light Rain
4:36 AM 32.4 °F 25.3 °F 32.5 °F 100% 29.73 in 3.0 mi East 8.1 mph - N/A Rain Light Rain
4:56 AM 32.2 °F 24.4 °F 32.4 °F 100% 29.72 in 3.0 mi East 9.2 mph - N/A   Overcast
5:16 AM 32.2 °F 25.8 °F 32.4 °F 100% 29.71 in 3.0 mi East 6.9 mph - N/A   Overcast
5:36 AM 32.2 °F 25.8 °F 32.4 °F 100% 29.72 in 3.0 mi ESE 6.9 mph - N/A   Overcast
5:56 AM 32.2 °F 24.4 °F 32.4 °F 100% 29.72 in 3.0 mi East 9.2 mph - N/A Snow Light Snow
6:16 AM 32.2 °F 24.4 °F 32.4 °F 100% 29.73 in 2.5 mi East 9.2 mph - N/A Snow Light Snow
6:36 AM 32.2 °F 25.0 °F 32.2 °F 100% 29.73 in 2.0 mi East 8.1 mph - N/A Snow Light Snow
6:56 AM 32.2 °F 25.0 °F 32.2 °F 100% 29.72 in 1.5 mi East 8.1 mph - N/A Snow Light Snow
7:16 AM 32.0 °F 24.8 °F 32.2 °F 100% 29.72 in 4.0 mi East 8.1 mph - N/A Snow Light Snow
7:36 AM 32.0 °F 24.2 °F 32.2 °F 100% 29.72 in 3.0 mi East 9.2 mph - N/A Snow Light Snow
7:57 AM 32.0 °F 23.6 °F 32.2 °F 100% 29.71 in 3.0 mi East 10.4 mph - N/A Snow Light Snow
8:16 AM 32.0 °F 23.6 °F 32.2 °F 100% 29.71 in 5.0 mi East 10.4 mph - N/A Rain Light Rain
8:36 AM 32.0 °F 24.2 °F 32.2 °F 100% 29.70 in 5.0 mi East 9.2 mph - N/A   Overcast
8:56 AM 32.0 °F 23.0 °F 32.0 °F 100% 29.69 in 4.0 mi East 11.5 mph - N/A   Overcast
9:16 AM 32.0 °F 24.2 °F 32.2 °F 100% 29.70 in 2.5 mi East 9.2 mph - N/A   Overcast
9:36 AM 32.0 °F 24.2 °F 32.2 °F 100% 29.69 in 2.5 mi East 9.2 mph - N/A   Overcast
9:56 AM 32.0 °F 23.6 °F 32.2 °F 100% 29.69 in 1.8 mi East 10.4 mph - N/A Rain Light Rain
10:16 AM 32.0 °F 24.2 °F 32.2 °F 100% 29.69 in 1.8 mi East 9.2 mph - N/A Rain Light Rain
10:36 AM 32.0 °F 23.6 °F 32.2 °F 100% 29.68 in 1.8 mi East 10.4 mph - N/A Rain Light Rain
10:56 AM 32.0 °F 24.8 °F 32.2 °F 100% 29.68 in 2.0 mi ENE 8.1 mph - N/A Rain Rain
11:16 AM 32.0 °F 24.2 °F 32.2 °F 100% 29.68 in 3.0 mi East 9.2 mph - N/A Rain Rain
11:36 AM 32.2 °F 24.4 °F 32.4 °F 100% 29.67 in 2.5 mi ENE 9.2 mph - N/A   Drizzle
11:56 AM 32.4 °F 26.0 °F 32.5 °F 100% 29.66 in 2.5 mi East 6.9 mph - N/A   Drizzle
12:16 PM 32.5 °F 25.5 °F 32.5 °F 100% 29.65 in 2.5 mi East 8.1 mph - N/A   Overcast
12:36 PM - - - N/A% 29.65 in 3.0 mi East 6.9 mph - N/A   Overcast
12:56 PM 33.1 °F 27.7 °F 33.1 °F 100% 29.66 in 4.0 mi ENE 5.8 mph - N/A   Overcast
1:16 PM 33.3 °F 27.9 °F 33.3 °F 100% 29.67 in 4.0 mi NE 5.8 mph - N/A   Overcast
1:36 PM 33.8 °F 27.7 °F 34.0 °F 100% 29.68 in 5.0 mi NNE 6.9 mph - 0.01 in   Overcast
1:56 PM 34.0 °F 28.8 °F 34.2 °F 100% 29.69 in 5.0 mi North 5.8 mph - 0.07 in   Overcast
2:16 PM 34.2 °F - 34.3 °F 100% 29.70 in 5.0 mi Calm Calm - 0.05 in   Overcast
2:36 PM 34.0 °F 29.8 °F 34.2 °F 100% 29.70 in 5.0 mi North 4.6 mph - 0.08 in   Overcast
2:56 PM 34.0 °F 29.8 °F 34.2 °F 100% 29.71 in 5.0 mi North 4.6 mph - 0.10 in   Overcast
3:16 PM 32.9 °F 26.7 °F 32.9 °F 100% 29.73 in 7.0 mi North 6.9 mph - 0.01 in   Overcast
3:36 PM 32.5 °F 28.1 °F 32.7 °F 100% 29.75 in 5.0 mi NNE 4.6 mph - 0.02 in   Overcast
3:56 PM 32.0 °F 23.0 °F 32.0 °F 100% 29.76 in 2.5 mi North 11.5 mph - 0.02 in   Drizzle
4:16 PM 31.8 °F 25.4 °F 32.0 °F 100% 29.78 in 4.0 mi North 6.9 mph - N/A   Light Freezing Rain
4:36 PM 31.1 °F 22.4 °F 31.3 °F 100% 29.79 in 5.0 mi North 10.4 mph - N/A   Overcast
4:56 PM - - - N/A% 29.80 in 10.0 mi North 6.9 mph - N/A   Overcast
5:16 PM 31.1 °F 25.4 °F 31.1 °F 100% 29.81 in 10.0 mi North 5.8 mph - N/A   Overcast
5:36 PM - - - N/A% 29.83 in 10.0 mi North 8.1 mph - N/A   Overcast
5:56 PM 30.7 °F 26.0 °F 30.9 °F 100% 29.84 in 10.0 mi North 4.6 mph - N/A   Overcast
6:16 PM 30.6 °F 23.8 °F 30.7 °F 100% 29.85 in 10.0 mi North 6.9 mph - N/A   Overcast
6:36 PM 30.6 °F 24.7 °F 30.7 °F 100% 29.86 in 10.0 mi NNW 5.8 mph - N/A   Overcast
6:56 PM 30.7 °F 24.9 °F 30.9 °F 100% 29.87 in 10.0 mi NNW 5.8 mph - N/A   Overcast
7:16 PM 30.7 °F 24.9 °F 30.6 °F 99% 29.89 in 10.0 mi NW 5.8 mph - N/A   Overcast
7:36 PM 30.2 °F 23.4 °F 29.7 °F 98% 29.90 in 10.0 mi NNW 6.9 mph - N/A   Overcast
7:56 PM 30.2 °F 25.4 °F 29.8 °F 99% 29.91 in 10.0 mi NW 4.6 mph - N/A   Overcast
8:16 PM 30.2 °F 24.3 °F 28.0 °F 92% 29.92 in 10.0 mi NNW 5.8 mph - N/A   Overcast
8:36 PM 29.8 °F 23.0 °F 27.5 °F 91% 29.93 in 10.0 mi NW 6.9 mph - N/A   Overcast
8:56 PM 29.3 °F 23.2 °F 26.6 °F 90% 29.94 in 10.0 mi NNW 5.8 mph - N/A   Overcast
9:16 PM 29.1 °F 23.0 °F 26.1 °F 88% 29.95 in 10.0 mi NNW 5.8 mph - N/A   Overcast
9:36 PM 29.1 °F 22.1 °F 26.4 °F 90% 29.95 in 10.0 mi NNW 6.9 mph - N/A   Overcast
9:55 PM 29.1 °F 23.0 °F 26.2 °F 89% 29.96 in 10.0 mi North 5.8 mph - N/A   Overcast
10:16 PM 28.8 °F 25.0 °F 25.7 °F 88% 29.97 in 10.0 mi North 3.5 mph - N/A   Overcast
10:36 PM 28.4 °F 21.2 °F 25.2 °F 88% 29.97 in 10.0 mi North 6.9 mph - N/A   Overcast
10:56 PM 28.4 °F - 24.8 °F 86% 29.97 in 10.0 mi Calm Calm - N/A   Overcast
11:16 PM 28.4 °F 23.3 °F 25.0 °F 87% 29.97 in 10.0 mi North 4.6 mph - N/A   Overcast
11:36 PM 28.4 °F 23.3 °F 24.8 °F 86% 29.98 in 10.0 mi NNW 4.6 mph - N/A   Overcast
11:56 PM 28.4 °F 23.3 °F 25.3 °F 88% 29.98 in 10.0 mi NNW 4.6 mph - N/A   Overcast